{"data":{"norad_id":58111,"intl_designator":"2023-161Q","name":"STARLINK-30595","alt_names":[],"object_type":"PAYLOAD","status":"ACTIVE","operator":null,"country":"US","launch_date":"2023-10-21","launch_site_code":"AFWTR","launch_vehicle":null,"mission":null,"orbit_class":"UNKNOWN","rcs_meters":null,"size_class":null,"mass_kg":null,"dimensions":null,"purposes":["comms"],"wikipedia_slug":null,"has_3d_model":false,"image_url":null,"decayed_at":null,"tle_current":{"epoch":"2026-05-24T19:22:44.101632Z","epoch_age_seconds":91426,"freshness":"FRESH","line1":"1 58111U 23161Q   26144.80745488  .00000276  00000+0  21456-4 0  9996","line2":"2 58111  53.1597 172.1117 0001227  82.0944 278.0197 15.30192676146079","mean_motion":15.30192676,"eccentricity":0.0001227,"inclination_deg":53.1597,"raan_deg":172.1117,"arg_perigee_deg":82.0944,"mean_anomaly_deg":278.0197,"bstar":2.1456e-5,"rev_number":14607,"period_min":94.105796125246,"perigee_km":474.39602866824,"apogee_km":476.07784663254,"semimajor_km":6853.3739376504,"source":"CELESTRAK","updated_at":"2026-05-25T13:38:18.528942Z"}}}